Location: Alafon
(8.4500°N, 4.2333°E)
Time: 02:13:18
(UTC+00:00)

deb Explorer IX - Pass Details

Date: 27 July 2021
Orbit: 545 x 1092 km, 38.8° (Epoch: 16 September)

Event Time Altitude Azimuth Distance (km) Brightness Sun altitude
Rises 12:11:10 0° 247° (WSW) 2,817 ? 78.1°
Reaches altitude 10° 12:13:28 10° 255° (WSW) 1,974 ? 77.9°
Maximum altitude 12:17:42 38° 324° (NW) 1,022 ? 77.4°
Drops below altitude 10° 12:22:34 10° 32° (NNE) 2,268 ? 76.7°
Sets 12:25:23 0° 40° (NE) 3,296 ? 76.3°
